CFG9JP EDDF-LSZH

Flight info

Callsign CFG9JP
Flight time 0h 38m
Altitude 23000
Route ANEKI2L/18 ANEKI Y163 NEKLO Y171 INKAM T725 LAMGO T721 RILAX
Aircraft A320/M-SDE3FGHIRWY/LB1

Departure

Time 2026-05-04 17:49
Airport Frankfurt Main Airport (EDDF)

Arrival

Time 2026-05-04 18:28
Airport Zürich Airport (LSZH)
Time Latitude Longitude Altitude Speed Heading
2026-05-04 17:12 50.04655 8.56810 360 ft 0 kts 295°
2026-05-04 17:38 50.04645 8.56844 358 ft 4 kts 295°
2026-05-04 17:38 50.04635 8.56877 360 ft 4 kts 287°
2026-05-04 17:38 50.04636 8.56912 356 ft 4 kts 227°
2026-05-04 17:39 50.04670 8.56946 357 ft 0 kts 205°
2026-05-04 17:39 50.04648 8.56931 364 ft 1 kts 204°
2026-05-04 17:39 50.04648 8.56930 364 ft 0 kts 204°
2026-05-04 17:42 50.04647 8.56930 364 ft 1 kts 204°
2026-05-04 17:42 50.04566 8.56897 358 ft 21 kts 192°
2026-05-04 17:42 50.04441 8.56790 363 ft 22 kts 246°
2026-05-04 17:42 50.04386 8.56556 358 ft 24 kts 250°
2026-05-04 17:43 50.04348 8.56396 360 ft 14 kts 250°
2026-05-04 17:43 50.04302 8.56197 357 ft 23 kts 250°
2026-05-04 17:43 50.04243 8.55949 355 ft 25 kts 250°
2026-05-04 17:43 50.04177 8.55682 359 ft 27 kts 250°
2026-05-04 17:44 50.04109 8.55397 358 ft 29 kts 250°
2026-05-04 17:44 50.04042 8.55106 354 ft 29 kts 249°
2026-05-04 17:44 50.03969 8.54807 356 ft 31 kts 249°
2026-05-04 17:44 50.03892 8.54489 354 ft 32 kts 250°
2026-05-04 17:45 50.03786 8.54178 351 ft 33 kts 247°
2026-05-04 17:45 50.03710 8.53849 348 ft 29 kts 249°
2026-05-04 17:45 50.03635 8.53542 339 ft 31 kts 249°
2026-05-04 17:45 50.03561 8.53224 337 ft 32 kts 250°
2026-05-04 17:46 50.03510 8.53008 337 ft 32 kts 250°
2026-05-04 17:46 50.03425 8.52683 334 ft 22 kts 249°
2026-05-04 17:46 50.03366 8.52594 335 ft 4 kts 179°
2026-05-04 17:46 50.03364 8.52593 335 ft 0 kts 179°
2026-05-04 17:49 50.03293 8.52594 332 ft 40 kts 180°
2026-05-04 17:49 50.02738 8.52596 335 ft 115 kts 179°
2026-05-04 17:49 50.01721 8.52607 345 ft 170 kts 179°
2026-05-04 17:49 50.00554 8.52602 987 ft 168 kts 181°
2026-05-04 17:50 49.99381 8.52652 1732 ft 171 kts 178°
2026-05-04 17:50 49.98123 8.52741 2136 ft 192 kts 178°
2026-05-04 17:50 49.96699 8.52848 2514 ft 214 kts 178°
2026-05-04 17:50 49.95112 8.52964 2896 ft 240 kts 178°
2026-05-04 17:51 49.93371 8.53090 3482 ft 259 kts 178°
2026-05-04 17:51 49.91554 8.53225 4436 ft 263 kts 177°
2026-05-04 17:51 49.89745 8.53358 5446 ft 264 kts 178°
2026-05-04 17:51 49.87909 8.53485 6495 ft 264 kts 178°
2026-05-04 17:52 49.86064 8.53609 7456 ft 266 kts 178°
2026-05-04 17:52 49.84209 8.53731 8395 ft 269 kts 179°
2026-05-04 17:52 49.82330 8.53857 9319 ft 272 kts 179°
2026-05-04 17:52 49.80428 8.53988 10202 ft 275 kts 179°
2026-05-04 17:53 49.78497 8.54121 11021 ft 279 kts 181°
2026-05-04 17:53 49.76548 8.53944 11829 ft 282 kts 187°
2026-05-04 17:53 49.74582 8.53682 12647 ft 285 kts 187°
2026-05-04 17:53 49.72594 8.53418 13453 ft 289 kts 187°
2026-05-04 17:54 49.70575 8.53155 14187 ft 293 kts 187°
2026-05-04 17:54 49.68531 8.52884 14884 ft 297 kts 187°
2026-05-04 17:54 49.66463 8.52608 15588 ft 300 kts 187°
2026-05-04 17:54 49.64374 8.52328 16296 ft 303 kts 187°
2026-05-04 17:55 49.62255 8.52050 16994 ft 307 kts 187°
2026-05-04 17:55 49.60115 8.51772 17694 ft 310 kts 186°
2026-05-04 17:55 49.57946 8.51490 18369 ft 314 kts 186°
2026-05-04 17:55 49.55761 8.51203 18974 ft 317 kts 186°
2026-05-04 17:56 49.53582 8.50916 19589 ft 320 kts 186°
2026-05-04 17:56 49.51359 8.50623 20203 ft 322 kts 186°
2026-05-04 17:56 49.49088 8.50324 20833 ft 324 kts 186°
2026-05-04 17:56 49.46862 8.50032 21437 ft 327 kts 186°
2026-05-04 17:57 49.44586 8.49733 22053 ft 329 kts 186°
2026-05-04 17:57 49.42289 8.49433 22667 ft 332 kts 186°
2026-05-04 17:57 49.39978 8.49130 22923 ft 333 kts 186°
2026-05-04 17:57 49.37672 8.48827 22975 ft 332 kts 186°
2026-05-04 17:58 49.35337 8.48521 22983 ft 346 kts 186°
2026-05-04 17:58 49.32866 8.48252 22981 ft 366 kts 182°
2026-05-04 17:58 49.30259 8.48492 22979 ft 387 kts 174°
2026-05-04 17:58 49.27585 8.49444 22980 ft 401 kts 164°
2026-05-04 17:59 49.24902 8.50662 22975 ft 401 kts 174°
2026-05-04 17:59 49.22123 8.50814 22989 ft 400 kts 182°
2026-05-04 17:59 49.16548 8.50657 22989 ft 400 kts 182°
2026-05-04 18:00 49.13766 8.50599 22988 ft 400 kts 182°
2026-05-04 18:00 49.10983 8.50580 22989 ft 400 kts 182°
2026-05-04 18:00 49.08227 8.50592 22986 ft 400 kts 181°
2026-05-04 18:00 49.05402 8.50620 22992 ft 400 kts 181°
2026-05-04 18:01 49.02618 8.50653 22994 ft 400 kts 181°
2026-05-04 18:01 48.99868 8.50682 22993 ft 400 kts 181°
2026-05-04 18:01 48.97050 8.50707 22999 ft 400 kts 181°
2026-05-04 18:02 48.91515 8.50733 22990 ft 401 kts 182°
2026-05-04 18:02 48.88721 8.50748 22989 ft 401 kts 181°
2026-05-04 18:02 48.85935 8.50767 22985 ft 401 kts 181°
2026-05-04 18:02 48.83146 8.50790 22982 ft 401 kts 181°
2026-05-04 18:03 48.80355 8.50814 22978 ft 401 kts 181°
2026-05-04 18:03 48.77562 8.50835 22982 ft 401 kts 182°
2026-05-04 18:03 48.74769 8.50853 22983 ft 401 kts 182°
2026-05-04 18:03 48.71977 8.50869 22979 ft 402 kts 182°
2026-05-04 18:04 48.69212 8.50886 22979 ft 402 kts 182°
2026-05-04 18:04 48.66374 8.50904 22979 ft 403 kts 182°
2026-05-04 18:04 48.60767 8.50937 22983 ft 403 kts 182°
2026-05-04 18:05 48.57958 8.50952 22985 ft 404 kts 182°
2026-05-04 18:05 48.55186 8.50967 22990 ft 404 kts 182°
2026-05-04 18:05 48.52375 8.50982 22992 ft 404 kts 182°
2026-05-04 18:05 48.49553 8.50996 22989 ft 404 kts 182°
2026-05-04 18:06 48.43912 8.51033 22992 ft 405 kts 182°
2026-05-04 18:06 48.41111 8.51050 22722 ft 400 kts 182°
2026-05-04 18:06 48.38345 8.51067 22399 ft 396 kts 182°
2026-05-04 18:07 48.35600 8.51086 22081 ft 393 kts 182°
2026-05-04 18:07 48.32867 8.51107 21766 ft 391 kts 182°
2026-05-04 18:07 48.30153 8.51125 21458 ft 389 kts 182°
2026-05-04 18:07 48.27451 8.51143 21152 ft 387 kts 181°
2026-05-04 18:08 48.24762 8.51163 20846 ft 385 kts 181°
2026-05-04 18:08 48.22085 8.51185 20551 ft 384 kts 181°
2026-05-04 18:08 48.19459 8.51205 20254 ft 382 kts 181°
2026-05-04 18:08 48.16806 8.51221 19960 ft 380 kts 181°
2026-05-04 18:09 48.11535 8.51249 19379 ft 378 kts 181°
2026-05-04 18:09 48.06294 8.51279 18807 ft 375 kts 180°
2026-05-04 18:10 48.03690 8.51293 18526 ft 374 kts 180°
2026-05-04 18:10 48.01091 8.51309 18240 ft 373 kts 180°
2026-05-04 18:10 47.98501 8.51336 17999 ft 372 kts 179°
2026-05-04 18:10 47.95937 8.51838 18011 ft 373 kts 167°
2026-05-04 18:11 47.93480 8.53097 18012 ft 375 kts 156°
2026-05-04 18:11 47.91233 8.55092 18012 ft 378 kts 144°
2026-05-04 18:11 47.89399 8.57313 18013 ft 379 kts 142°
2026-05-04 18:11 47.87363 8.59806 18010 ft 379 kts 142°
2026-05-04 18:12 47.85317 8.62298 18008 ft 380 kts 143°
2026-05-04 18:12 47.83273 8.64782 18005 ft 380 kts 143°
2026-05-04 18:12 47.81260 8.67221 18001 ft 364 kts 143°
2026-05-04 18:12 47.79358 8.69528 17745 ft 342 kts 143°
2026-05-04 18:13 47.77567 8.71699 17430 ft 325 kts 143°
2026-05-04 18:13 47.75833 8.73797 17019 ft 319 kts 143°
2026-05-04 18:13 47.72438 8.77890 16000 ft 310 kts 143°
2026-05-04 18:14 47.70776 8.79887 15509 ft 313 kts 143°
2026-05-04 18:14 47.69073 8.81933 15017 ft 316 kts 143°
2026-05-04 18:14 47.67356 8.83997 14535 ft 319 kts 143°
2026-05-04 18:15 47.63898 8.88163 13545 ft 316 kts 143°
2026-05-04 18:15 47.61146 8.92980 12498 ft 302 kts 121°
2026-05-04 18:15 47.60145 8.95664 11985 ft 294 kts 122°
2026-05-04 18:16 47.59046 8.98145 11481 ft 282 kts 137°
2026-05-04 18:16 47.57515 8.99836 10991 ft 271 kts 158°
2026-05-04 18:16 47.55727 9.00564 10603 ft 265 kts 177°
2026-05-04 18:17 47.52266 8.99157 9994 ft 263 kts 215°
2026-05-04 18:17 47.51006 8.97209 9657 ft 265 kts 235°
2026-05-04 18:17 47.50238 8.91940 8979 ft 274 kts 280°
2026-05-04 18:18 47.50954 8.89323 8645 ft 277 kts 298°
2026-05-04 18:18 47.52031 8.86959 8345 ft 278 kts 303°
2026-05-04 18:18 47.53168 8.84642 8063 ft 277 kts 304°
2026-05-04 18:18 47.54300 8.82344 7786 ft 276 kts 304°
2026-05-04 18:19 47.56532 8.77791 7255 ft 274 kts 304°
2026-05-04 18:19 47.57647 8.75510 6986 ft 272 kts 303°
2026-05-04 18:19 47.58752 8.73244 6715 ft 272 kts 304°
2026-05-04 18:20 47.59851 8.70974 6455 ft 271 kts 303°
2026-05-04 18:20 47.60942 8.68710 6168 ft 269 kts 304°
2026-05-04 18:20 47.62015 8.66462 5891 ft 266 kts 304°
2026-05-04 18:20 47.63079 8.64221 5614 ft 264 kts 304°
2026-05-04 18:21 47.64126 8.62004 5336 ft 262 kts 304°
2026-05-04 18:21 47.65159 8.59794 5084 ft 259 kts 304°
2026-05-04 18:21 47.66179 8.57599 5002 ft 258 kts 304°
2026-05-04 18:21 47.67196 8.55405 5001 ft 259 kts 303°
2026-05-04 18:22 47.68207 8.53216 4783 ft 253 kts 303°
2026-05-04 18:22 47.68960 8.50929 4553 ft 243 kts 283°
2026-05-04 18:22 47.69033 8.48479 4319 ft 236 kts 259°
2026-05-04 18:22 47.68445 8.46266 4109 ft 229 kts 237°
2026-05-04 18:23 47.67347 8.44646 4012 ft 219 kts 213°
2026-05-04 18:23 47.65977 8.43786 4015 ft 215 kts 198°
2026-05-04 18:23 47.64542 8.43156 4013 ft 214 kts 198°
2026-05-04 18:23 47.63117 8.42527 4013 ft 214 kts 199°
2026-05-04 18:24 47.61689 8.41896 4011 ft 214 kts 199°
2026-05-04 18:24 47.60262 8.41266 4011 ft 214 kts 199°
2026-05-04 18:24 47.58822 8.40695 4004 ft 214 kts 187°
2026-05-04 18:24 47.57364 8.41123 3852 ft 221 kts 147°
2026-05-04 18:25 47.56207 8.42591 3591 ft 220 kts 137°
2026-05-04 18:25 47.55103 8.44150 3312 ft 219 kts 137°
2026-05-04 18:25 47.53993 8.45687 3017 ft 216 kts 138°
2026-05-04 18:25 47.52926 8.47151 2737 ft 203 kts 139°
2026-05-04 18:26 47.51928 8.48519 2492 ft 189 kts 140°
2026-05-04 18:26 47.51001 8.49783 2104 ft 174 kts 139°
2026-05-04 18:26 47.50156 8.50941 1964 ft 160 kts 138°
2026-05-04 18:26 47.49367 8.52046 1723 ft 153 kts 138°
2026-05-04 18:27 47.48591 8.53105 1541 ft 150 kts 140°
2026-05-04 18:27 47.47831 8.54132 1408 ft 141 kts 141°
2026-05-04 18:27 47.47254 8.54908 1388 ft 80 kts 137°
2026-05-04 18:27 47.46900 8.55390 1392 ft 63 kts 137°
2026-05-04 18:28 47.46665 8.55649 1399 ft 39 kts 160°
2026-05-04 18:28 47.46476 8.55721 1401 ft 19 kts 166°
2026-05-04 18:28 47.46362 8.55796 1402 ft 17 kts 139°
2026-05-04 18:28 47.46269 8.55907 1407 ft 17 kts 138°
2026-05-04 18:29 47.46181 8.55997 1411 ft 15 kts 175°
2026-05-04 18:29 47.46077 8.55987 1407 ft 16 kts 185°
2026-05-04 18:29 47.45959 8.55964 1406 ft 18 kts 198°
2026-05-04 18:29 47.45838 8.55905 1411 ft 18 kts 199°
2026-05-04 18:30 47.45561 8.55844 1408 ft 18 kts 187°
2026-05-04 18:30 47.45488 8.55812 1411 ft 7 kts 189°
2026-05-04 18:30 47.45454 8.55808 1407 ft 4 kts 185°
2026-05-04 18:31 47.45428 8.55804 1407 ft 3 kts 186°
2026-05-04 18:31 47.45424 8.55803 1407 ft 0 kts 186°